Regional Weather Roundup
Issued by NWS

Home | Current Version | Previous Version | Graphics & Text | Print | Product List | Glossary On
Versions: 1 2 3 4 5 6 7 8 9 10 11 12 13 14 15 16 17 18 19 20 21 22 23 24 25 26 27 28 29 30 31 32 33 34 35 36 37 38 39 40 41 42 43 44 45 46 47 48 49 50
846
ASUS43 KMKX 272300
RWRWI

WISCONSIN REGIONAL WEATHER ROUNDUP
NATIONAL WEATHER SERVICE MILWAUKEE/SULLIVAN WI
600 PM CDT TUE JUN 27 2017

NOTE: "FAIR" INDICATES FEW OR NO CLOUDS BELOW 12,000 FEET WITH NO
SIGNIFICANT WEATHER AND/OR OBSTRUCTIONS TO VISIBILITY.

WIZ001-002-006>008-014>016-023>028-280000-
NORTHWEST WISCONSIN

CITY           SKY/WX    TMP DP  RH WIND       PRES   REMARKS
SUPERIOR ARPT  NOT AVBL
ASHLAND        FAIR      73  48  41 SW14      29.87F
HAYWARD        FAIR      73  45  36 SW9       29.90F
SIREN          FAIR      75  42  30 S12G21    29.89F
CUMBERLAND     FAIR      70  41  35 S17       29.92F
RICE LAKE      FAIR      74  42  32 S12       29.93F
CHETEK         FAIR      74  48  40 SW6       29.93F
LADYSMITH      FAIR      72  46  39 S13G20    29.95F
EAU CLAIRE     NOT AVBL
MENOMONIE      FAIR      74  46  36 S10       29.92F
NEW RICHMOND   FAIR      73  40  31 S16G22    29.91F
OSCEOLA        FAIR      74  42  31 S14G22    29.92F
$$

WIZ003>005-009-010-017-018-280000-
NORTH CENTRAL WISCONSIN

CITY           SKY/WX    TMP DP  RH WIND       PRES   REMARKS
MANITOWISH WTR FAIR      71  47  42 SW12G20   29.94S
ARBOR VITAE    FAIR      72  46  40 SW14G21   29.94F
WOODRUFF       FAIR      72  46  40 SW14G21   29.94F
RHINELANDER    FAIR      70  47  43 SW10      29.96F
EAGLE RIVER    FAIR      70  44  38 SW12      29.94F
LAND O LAKES   PTSUNNY   73  43  34 W9        29.94F
PHILLIPS       FAIR      70  48  45 SW12      29.94F
TOMAHAWK       NOT AVBL
MEDFORD        FAIR      70  46  42 SW13G18   29.96F
MERRILL        FAIR      72  48  42 SW14      29.97F
$$

WIZ029-030-035-036-043>047-280000-
CENTRAL WISCONSIN

CITY           SKY/WX    TMP DP  RH WIND       PRES   REMARKS
WAUSAU           N/A    N/A N/A N/A MISG      29.95F
MOSINEE        PTSUNNY   72  46  40 SW14      29.99F
MARSHFIELD     FAIR      71  46  40 SW9       29.95F
STEVENS POINT  PTSUNNY   72  46  38 SW13      29.98F
WAUPACA        FAIR      76  44  31 SW13      29.98F
WAUTOMA        FAIR      74  48  39 SW12      29.98F
WISC RAPIDS    FAIR      74  47  38 S7G17     29.98F
CAMP DOUGLAS   NOT AVBL
$$

WIZ011>013-019>022-031-037>040-048>050-280000-
NORTHEAST WISCONSIN

CITY           SKY/WX    TMP DP  RH WIND       PRES   REMARKS
ANTIGO         FAIR      69  49  49 SW13      29.98F
SHAWANO        FAIR      75  45  33 SW10      29.96F
OCONTO         FAIR      74  48  39 SW12      29.94F
STURGEON BAY     N/A     70  54  56 S10       29.96F
GREEN BAY      FAIR      75  49  39 W10       29.97F
MANITOWOC      NOT AVBL
APPLETON       NOT AVBL
CLINTONVILLE   FAIR      73  43  33 SW9       29.97F
OSHKOSH        FAIR      74  47  38 W9        29.98F
$$

WIZ032>034-041-042-053>061-280000-
SOUTHWEST WISCONSIN

CITY           SKY/WX    TMP DP  RH WIND       PRES   REMARKS
LA CROSSE      FAIR      78  46  32 S12       29.95F
SPARTA         FAIR      73  46  38 S8G16     29.98F
VIROQUA        FAIR      71  46  40 SW12G17   30.00F
BOSCOBEL       FAIR      75  47  36 S8        29.99F
PRAIRIE DU CHI FAIR      74  42  30 SE7       29.99F
PLATTEVILLE    FAIR      73  46  37 S10       30.02F
$$

WIZ056-057-062-063-064-067-068-280000-
SOUTH CENTRAL WISCONSIN

CITY           SKY/WX    TMP DP  RH WIND       PRES   REMARKS
REEDSBURG      FAIR      74  49  41 S13       29.99F
BARABOO/DELLS  FAIR      73  45  37 SW7       30.00F
LONE ROCK      NOT AVBL
MINERAL POINT  FAIR      73  43  33 S10       30.02F
MADISON        PTSUNNY   74  47  38 SW8       30.00F
MIDDLETON      FAIR      75  45  34 W10       30.02F
WATERTOWN      NOT AVBL
MONROE         FAIR      73  43  33 S12       30.03F
JANESVILLE     MOSUNNY   75  43  31 SW7       30.01F
$$

WIZ051-052-058>065-066-070>072-280000-
SOUTHEAST WISCONSIN

CITY           SKY/WX    TMP DP  RH WIND       PRES   REMARKS
MILWAUKEE      PTSUNNY   75  46  35 W13       30.01F
WAUKESHA       MOSUNNY   72  45  37 W8        30.03F
MILWAUKEE/TIMM MOSUNNY   73  39  29 W8        30.02F
RACINE         FAIR      67  51  56 S10       30.04F
KENOSHA        FAIR      74  46  36 SW7       30.02F
FOND DU LAC    FAIR      74  45  35 SW8       29.99F
SHEBOYGAN      FAIR      73  49  42 W7        29.99F
WEST BEND      FAIR      72  45  37 SW8       30.01F
JUNEAU         FAIR      72  46  38 SW5       30.02F
$$

LSZ147-162-280000-
LAKE SUPERIOR

STATION/POSITION TIME  TEMP    WIND        PRES    WAVE
                       AIR SEA DIR/SP/G            HT/PER
                 (UTC) (F)     (DEG/KT/KT) (MB)    (FT/S)
W MID LAKE BUOY  2150   52 39  220/  8/  8 1012.6F   1
DEVILS ISLAND    2200   69     200/  5/  7 1011.6F
SAXON HARBOR     2240   75     210/  8/ 12 1011.5F
$$

LMZ867-665-643>646-280000-
LAKE MICHIGAN

STATION/POSITION TIME  TEMP    WIND        PRES    WAVE
                       AIR SEA DIR/SP/G            HT/PER
                 (UTC) (F)     (DEG/KT/KT) (MB)    (FT/S)
CHAMBERS ISLAND  2230   70     140/  5/ 13 1013.9F
S GREEN BAY BUOY 2230   70     220/  8/ 10 1014.2F
N MID LAKE BUOY  2150   59 58  190/ 10/ 12 1015.9F   1
NORTHPORT PIER   2240   66     160/  7/ 13 1014.6F
KEWAUNEE LAKESHO 2230   55     180/ 14/ 15 1014.8F
SHEBOYGAN LAKESH 2200   60     170/ 20/ 21 1015.8F
PORT WASHINGTON  2230   62     180/  9/ 13 1016.9F
ATWATER BUOY     2109   62 57  150/ 12/ 14 1017.0F
MILWAUKEE LAKESH 2230   62     140/ 12/ 13   N/A
S MID LAKE BUOY  2150   63 62  170/ 10/ 10 1017.9F   1
KENOSHA   LAKESH 2200   63     160/ 12/ 15 1016.9
$$

TC  - TEMPERATURE IN CELSIUS
VSB - VISIBILITY IN STATUTE MILES
WCI - WIND CHILL INDEX
HX  - HEAT INDEX





USA.gov is the U.S. government's official web portal to all federal, state and local government web resources and services.